FW7772 Weather Reports


Display with metric or nautical units.
time (UTC)temp
F
wind
direction
speed
MPH
gust
MPH
rain 1hr
in
rain 24hr
in
rain mn
in
humidity
%
barometer
mb
20260502122901 64 291 12.0 20.0 0.00 0.00 0.00 33 1008.6
20260502121901 63 310 10.0 19.0 0.00 0.00 0.00 33 1008.8
20260502120901 64 305 13.0 19.0 0.00 0.00 0.00 32 1008.8
20260502115901 65 270 13.0 23.0 0.00 0.00 0.00 31 1008.8
20260502114901 65 310 12.0 16.0 0.00 0.00 0.00 32 1008.8
20260502113901 65 305 10.0 16.0 0.00 0.00 0.00 30 1008.9
20260502112901 65 285 13.0 23.0 0.00 0.00 0.00 30 1008.9
20260502111900 67 258 12.0 19.0 0.00 0.00 0.00 29 1009.0
20260502110900 67 305 11.0 20.0 0.00 0.00 0.00 28 1009.1
20260502105902 65 277 8.0 18.0 0.00 0.00 0.00 30 1009.4
20260502104901 65 281 9.0 18.0 0.00 0.00 0.00 31 1009.4
20260502103901 64 266 12.0 21.0 0.00 0.00 0.00 32 1009.5
20260502102901 66 331 12.0 20.0 0.00 0.00 0.00 30 1009.2
20260502101901 67 242 9.0 20.0 0.00 0.00 0.00 29 1009.6
20260502100901 67 261 9.0 20.0 0.00 0.00 0.00 29 1009.7
20260502090901 64 258 6.0 17.0 0.00 0.00 0.00 34 1009.9
20260502070902 58 259 7.0 13.0 0.00 0.00 0.00 43 1011.1
20260502065833 57 273 6.0 14.0 0.00 0.00 0.00 43 1011.2
20260502064833 56 276 8.0 15.0 0.00 0.00 0.00 45 1011.1
20260502063833 56 249 7.0 13.0 0.00 0.00 0.00 48 1011.2
20260502063314 54 241 8.0 14.0 0.00 0.00 0.00 51 1011.3
20260502061833 53 300 7.0 13.0 0.00 0.00 0.00 53 1011.3
20260502060833 53 244 9.0 15.0 0.00 0.00 0.00 55 1011.5
20260502055834 52 260 8.0 13.0 0.00 0.00 0.00 58 1011.6
20260502054833 51 262 7.0 12.0 0.00 0.00 0.00 61 1011.7
20260502053833 50 222 8.0 15.0 0.00 0.00 0.00 63 1011.8
20260502052830 48 277 6.0 11.0 0.00 0.00 0.00 68 1011.7
20260502051831 47 231 6.0 11.0 0.00 0.00 0.00 72 1011.7
20260502050830 44 222 4.0 9.0 0.00 0.00 0.00 78 1011.6
20260502045832 43 245 3.0 6.0 0.00 0.00 0.00 82 1011.8
20260502045307 41 264 3.0 6.0 0.00 0.00 0.00 85 1011.7
20260502044308 39 300 4.0 11.0 0.00 0.00 0.00 87 1011.7
20260502043301 38 295 3.0 5.0 0.00 0.00 0.00 86 1011.9
20260502041829 37 276 2.0 3.0 0.00 0.00 0.00 85 1011.9
20260502040829 37 291 2.0 3.0 0.00 0.00 0.00 84 1011.9
20260502040746 37 270 3.0 4.0 0.00 0.00 0.00 83 1012.0
20260502034829 37 280 3.0 5.0 0.00 0.00 0.00 83 1012.1
20260502033829 37 324 2.0 4.0 0.00 0.00 0.00 82 1012.3
20260502032829 37 270 0.0 2.0 0.00 0.00 0.00 81 1012.4
20260502031830 37 277 2.0 3.0 0.00 0.00 0.00 80 1012.5
20260502030830 37 277 2.0 3.0 0.00 0.00 0.00 80 1012.5
20260502025828 38 266 2.0 3.0 0.00 0.00 0.00 79 1012.7
20260502024831 38 248 2.0 3.0 0.00 0.00 0.00 79 1012.8
20260502023829 38 289 3.0 4.0 0.00 0.00 0.00 78 1012.8
20260502022829 38 314 2.0 4.0 0.00 0.00 0.00 77 1012.8
20260502021829 39 288 4.0 8.0 0.00 0.00 0.00 77 1012.9
20260502020829 39 240 2.0 7.0 0.00 0.00 0.00 75 1012.8
20260502015829 40 294 1.0 3.0 0.00 0.00 0.00 74 1012.9
20260502014830 40 237 2.0 3.0 0.00 0.00 0.00 73 1013.1
20260502014316 41 314 2.0 4.0 0.00 0.00 0.00 72 1013.3
20260502012829 42 284 1.0 3.0 0.00 0.00 0.00 70 1013.4
20260502011829 43 226 1.0 2.0 0.00 0.00 0.00 69 1013.6
20260502010828 44 213 2.0 3.0 0.00 0.00 0.00 68 1013.6
20260502005829 45 287 2.0 4.0 0.00 0.00 0.00 65 1013.8
20260502004828 46 300 1.0 3.0 0.00 0.00 0.00 64 1013.8
20260502003828 47 300 1.0 3.0 0.00 0.00 0.00 63 1013.9
20260502002829 48 300 1.0 2.0 0.00 0.00 0.00 62 1014.0
20260502002315 49 300 2.0 3.0 0.00 0.00 0.00 60 1014.0
20260502000829 50 263 2.0 4.0 0.00 0.00 0.00 58 1014.0
20260501235829 51 254 0.0 2.0 0.00 0.00 0.00 56 1014.1
20260501234828 53 271 0.0 2.0 0.00 0.00 0.00 55 1014.2
20260501233828 53 261 2.0 6.0 0.00 0.00 0.00 53 1014.3
20260501232829 54 263 3.0 9.0 0.00 0.00 0.00 52 1014.2
20260501231829 55 278 4.0 8.0 0.00 0.00 0.00 51 1014.2
20260501230829 55 267 3.0 8.0 0.00 0.00 0.00 50 1014.2
20260501225828 56 251 3.0 6.0 0.00 0.00 0.00 49 1014.4
20260501224828 57 257 3.0 7.0 0.00 0.00 0.00 48 1014.4
20260501223828 57 210 2.0 8.0 0.00 0.00 0.00 47 1014.5
20260501222828 58 261 4.0 9.0 0.00 0.00 0.00 46 1014.6
20260501222306 58 179 5.0 11.0 0.00 0.00 0.00 45 1014.6
20260501220827 59 243 5.0 13.0 0.00 0.00 0.00 45 1014.6
20260501215825 59 237 6.0 15.0 0.00 0.00 0.00 44 1014.6
20260501214824 59 274 7.0 14.0 0.00 0.00 0.00 44 1014.6
20260501213824 60 247 6.0 17.0 0.00 0.00 0.00 43 1014.5
20260501212825 60 228 6.0 18.0 0.00 0.00 0.00 42 1014.7
20260501211825 60 240 6.0 11.0 0.00 0.00 0.00 42 1014.7
20260501211747 61 239 6.0 13.0 0.00 0.00 0.00 41 1014.8
20260501205825 61 265 6.0 13.0 0.00 0.00 0.00 41 1014.9
20260501204823 61 231 6.0 14.0 0.00 0.00 0.00 41 1014.8
20260501203824 61 272 5.0 14.0 0.00 0.00 0.00 41 1014.8
20260501202824 61 256 4.0 11.0 0.00 0.00 0.00 42 1014.8
20260501201826 60 268 4.0 8.0 0.00 0.00 0.00 41 1015.0
20260501200825 60 300 4.0 11.0 0.00 0.00 0.00 41 1015.0
20260501195823 60 199 2.0 7.0 0.00 0.00 0.00 40 1015.0
20260501195738 61 193 2.0 10.0 0.00 0.00 0.00 40 1015.0
20260501193819 62 231 2.0 3.0 0.00 0.00 0.00 38 1014.9
20260501192818 63 249 2.0 9.0 0.00 0.00 0.00 38 1015.1
20260501191818 64 193 2.0 7.0 0.00 0.00 0.00 35 1015.0
20260501191256 66 222 1.0 6.0 0.00 0.00 0.00 33 1014.9
20260501185819 67 197 2.0 6.0 0.00 0.00 0.00 31 1015.0
20260501184819 68 206 3.0 6.0 0.00 0.00 0.00 30 1015.0
20260501183819 69 228 2.0 9.0 0.00 0.00 0.00 28 1015.1
20260501182818 70 250 2.0 8.0 0.00 0.00 0.00 27 1015.1
20260501181812 69 310 4.0 17.0 0.00 0.00 0.00 29 1015.0
20260501180814 70 230 6.0 13.0 0.00 0.00 0.00 27 1015.1
20260501175812 70 227 7.0 18.0 0.00 0.00 0.00 27 1015.0
20260501174812 71 227 8.0 17.0 0.00 0.00 0.00 25 1015.1
20260501173812 71 262 6.0 17.0 0.00 0.00 0.00 24 1015.0
20260501172813 71 229 3.0 9.0 0.00 0.00 0.00 25 1014.9
20260501171814 72 265 6.0 12.0 0.00 0.00 0.00 23 1015.0
20260501170812 72 257 8.0 18.0 0.00 0.00 0.00 23 1015.0
20260501165810 72 262 11.0 20.0 0.00 0.00 0.00 22 1015.1
20260501165258 73 279 9.0 18.0 0.00 0.00 0.00 22 1015.1
20260501163808 73 231 10.0 20.0 0.00 0.00 0.00 25 1015.2
20260501163244 73 232 8.0 18.0 0.00 0.00 0.00 25 1015.4
20260501161808 73 212 12.0 22.0 0.00 0.00 0.00 25 1015.4
20260501160808 74 276 11.0 19.0 0.00 0.00 0.00 22 1015.4
20260501155808 74 242 9.0 16.0 0.00 0.00 0.00 21 1015.7
20260501154808 74 305 10.0 18.0 0.00 0.00 0.00 20 1015.8
20260501153809 73 266 14.0 28.0 0.00 0.00 0.00 20 1016.0
20260501153734 74 310 14.0 25.0 0.00 0.00 0.00 19 1016.0
20260501151808 74 253 14.0 28.0 0.00 0.00 0.00 20 1016.1
20260501150809 74 305 15.0 26.0 0.00 0.00 0.00 20 1016.4
20260501145808 74 251 11.0 20.0 0.00 0.00 0.00 20 1016.4
20260501144808 74 258 12.0 22.0 0.00 0.00 0.00 21 1016.5
20260501144252 75 274 10.0 20.0 0.00 0.00 0.00 22 1016.6
20260501142809 76 287 8.0 19.0 0.00 0.00 0.00 20 1016.6
20260501141807 76 290 10.0 20.0 0.00 0.00 0.00 21 1016.7
20260501140808 75 265 15.0 25.0 0.00 0.00 0.00 21 1016.8
20260501140244 76 241 12.0 22.0 0.00 0.00 0.00 24 1016.8
20260501135245 75 296 12.0 20.0 0.00 0.00 0.00 21 1016.8
20260501133808 76 276 13.0 24.0 0.00 0.00 0.00 21 1016.9